Weather reports worldwide

Advertisment
Plymouth, United Kingdom (3827): temperature & dewpoint: 29.07.2020 15:00:00 - 04.08.2020 15:00:00 (BST)Plymouth, United Kingdom (3827): wind speed: 29.07.2020 15:00:00 - 04.08.2020 15:00:00 (BST)Plymouth, United Kingdom (3827): wind direction: 29.07.2020 15:00:00 - 04.08.2020 15:00:00 (BST)Plymouth, United Kingdom (3827): reduced air pressure: 29.07.2020 15:00:00 - 04.08.2020 15:00:00 (BST)Plymouth, United Kingdom (3827): visibility: 29.07.2020 15:00:00 - 04.08.2020 15:00:00 (BST)Plymouth, United Kingdom (3827): precipitation: 29.07.2020 15:00:00 - 04.08.2020 15:00:00 (BST)
Date & Time tt [°C] td [°C] ff [km/h] ff [kn] dd ppp [hPa] vv [km] rr [mm]
04.08.2020 15:00:00 - - - - - - - -
04.08.2020 14:00:00 18,2 13,2 22 12 SSW 1017,7 29 0,0
04.08.2020 13:00:00 18,8 14,1 22 12 SW 1017,7 29 0,0
04.08.2020 12:00:00 19,5 13,8 16 9 SSW 1017,9 35 0,0
04.08.2020 11:00:00 20,0 13,0 16 9 SSW 1017,9 30 0,0
04.08.2020 10:00:00 18,4 13,3 11 6 SSW 1018,0 30 0,0
04.08.2020 09:00:00 15,4 13,3 2 1 SSW 1018,4 28 0,0
04.08.2020 08:00:00 11,9 10,9 4 2 ENE 1018,5 27 0,0
04.08.2020 07:00:00 10,7 10,3 5 3 E 1018,2 26 0,0
04.08.2020 06:00:00 9,8 9,4 8 4 E 1018,3 23 0,0
04.08.2020 05:00:00 9,6 9,2 4 2 E 1018,7 23 0,0
04.08.2020 04:00:00 9,7 9,2 2 1 N 1019,0 19 0,0
04.08.2020 03:00:00 9,9 9,4 0 0 N 1019,3 21 0,0
04.08.2020 02:00:00 10,1 9,2 4 2 ENE 1019,7 26 0,0
04.08.2020 01:00:00 10,9 9,3 5 3 W 1019,8 25 0,0
04.08.2020 00:00:00 12,6 9,8 8 4 NNW 1019,9 30 0,0
03.08.2020 23:00:00 13,3 10,1 8 4 NNW 1019,7 29 0,0
03.08.2020 22:00:00 14,0 9,8 9 5 NNW 1019,4 30 0,0
03.08.2020 21:00:00 15,4 8,9 18 10 NNW 1019,1 30 0,0
03.08.2020 20:00:00 17,0 7,2 18 10 NNW 1018,8 30 0,0
03.08.2020 19:00:00 18,5 7,6 18 10 NNW 1018,4 35 0,0
03.08.2020 18:00:00 19,0 7,7 21 11 NNW 1018,4 40 0,0
03.08.2020 17:00:00 19,9 6,7 18 10 NW 1018,2 35 0,0
03.08.2020 16:00:00 21,0 7,9 18 10 NW 1018,0 35 0,0
03.08.2020 15:00:00 19,6 7,4 13 7 NNW 1018,2 35 0,0
03.08.2020 14:00:00 20,3 8,6 16 9 NNW 1018,4 30 0,0
03.08.2020 13:00:00 18,9 8,5 16 9 NW 1018,6 35 0,0
03.08.2020 12:00:00 18,8 8,3 13 7 NW 1018,7 30 0,0
03.08.2020 11:00:00 19,0 11,7 13 7 NW 1018,5 30 0,0
03.08.2020 10:00:00 16,6 14,0 9 5 NW 1018,6 26 0,0
03.08.2020 09:00:00 13,1 12,8 5 3 WSW 1018,7 23 0,0
03.08.2020 08:00:00 12,3 12,2 4 2 WSW 1018,3 21 0,0
03.08.2020 07:00:00 10,5 10,4 4 2 NE 1018,0 16 0,0
03.08.2020 06:00:00 9,7 9,4 2 1 NNW 1018,1 16 0,0
03.08.2020 05:00:00 10,0 9,7 2 1 N 1017,8 17 0,0
03.08.2020 04:00:00 10,1 9,5 5 3 W 1017,9 18 0,0
03.08.2020 03:00:00 10,8 9,9 4 2 WNW 1018,1 21 0,0
03.08.2020 02:00:00 11,8 10,8 8 4 W 1018,3 23 0,0
03.08.2020 01:00:00 12,6 11,4 9 5 WNW 1018,5 25 0,0
03.08.2020 00:00:00 12,6 10,9 9 5 W 1018,5 26 0,0
02.08.2020 23:00:00 13,6 11,0 9 5 W 1018,4 26 0,0
02.08.2020 22:00:00 14,9 10,9 15 8 NW 1018,3 28 0,0
02.08.2020 21:00:00 15,4 10,6 16 9 WNW 1018,0 30 0,0
02.08.2020 20:00:00 16,2 10,7 15 8 WNW 1017,9 30 0,0
02.08.2020 19:00:00 17,3 10,6 18 10 W 1018,0 30 0,0
02.08.2020 18:00:00 17,6 9,1 21 11 WNW 1017,9 30 0,0
02.08.2020 17:00:00 18,6 9,9 21 11 W 1018,0 30 0,0
02.08.2020 16:00:00 19,1 11,4 15 8 WNW 1017,8 30 0,0
02.08.2020 15:00:00 19,6 11,7 16 9 W 1018,1 35 0,0
02.08.2020 14:00:00 20,4 15,1 22 12 SW 1018,3 24 0,0
02.08.2020 13:00:00 18,3 14,7 21 11 SW 1018,8 26 0,0
02.08.2020 12:00:00 18,3 14,2 16 9 SSW 1018,9 25 0,0
02.08.2020 11:00:00 19,2 14,8 16 9 SSW 1019,0 24 0,0
02.08.2020 10:00:00 18,4 14,1 15 8 SW 1019,1 24 0,0
02.08.2020 09:00:00 17,2 14,0 13 7 SW 1019,2 25 0,0
02.08.2020 08:00:00 15,7 14,0 9 5 W 1019,1 23 0,0
02.08.2020 07:00:00 14,0 13,1 11 6 W 1018,8 22 0,0
02.08.2020 06:00:00 14,0 13,0 9 5 W 1018,7 23 0,0
02.08.2020 05:00:00 13,7 12,8 11 6 W 1018,8 23 0,0
02.08.2020 04:00:00 13,7 12,6 9 5 W 1018,8 24 0,0
02.08.2020 03:00:00 13,2 12,0 11 6 W 1018,9 24 0,0
02.08.2020 02:00:00 13,7 12,3 13 7 W 1019,2 24 0,0
02.08.2020 01:00:00 13,5 12,0 13 7 W 1019,4 23 0,0
02.08.2020 00:00:00 13,7 11,8 13 7 W 1019,7 26 0,0
01.08.2020 23:00:00 14,9 11,7 16 9 WSW 1019,7 28 0,0
01.08.2020 22:00:00 15,2 10,9 18 10 W 1019,7 30 0,0
01.08.2020 21:00:00 16,1 11,1 18 10 W 1019,2 30 0,0
01.08.2020 20:00:00 16,8 10,1 22 12 W 1018,9 35 0,0
01.08.2020 19:00:00 17,5 10,6 18 10 WNW 1018,8 30 0,0
01.08.2020 18:00:00 17,8 11,2 18 10 WNW 1018,8 30 0,0
01.08.2020 17:00:00 18,4 10,5 24 13 WNW 1019,0 30 0,0
01.08.2020 16:00:00 18,6 10,8 21 11 WNW 1018,8 30 0,0
01.08.2020 15:00:00 19,0 11,4 22 12 NW 1018,6 30 0,0
01.08.2020 14:00:00 18,4 12,7 24 13 NW 1018,2 35 0,0
01.08.2020 13:00:00 18,4 13,2 18 10 W 1018,2 30 0,0
01.08.2020 12:00:00 19,8 14,8 15 8 WNW 1017,6 30 0,0
01.08.2020 11:00:00 18,8 13,6 15 8 WNW 1017,5 30 0,0
01.08.2020 10:00:00 18,3 14,4 13 7 WNW 1016,9 29 0,0
01.08.2020 09:00:00 16,8 14,7 15 8 WNW 1016,8 29 0,0
01.08.2020 08:00:00 16,5 16,2 11 6 W 1016,4 19 0,0
01.08.2020 07:00:00 16,2 16,2 8 4 WSW 1016,0 12 0,0
01.08.2020 06:00:00 16,0 15,9 8 4 WSW 1015,8 6 0,0
01.08.2020 05:00:00 15,9 15,7 13 7 SW 1015,6 9 0,0
01.08.2020 04:00:00 15,9 15,7 15 8 WSW 1015,6 13 0,0
01.08.2020 03:00:00 16,3 16,2 15 8 SSW 1015,4 7 0,0
01.08.2020 02:00:00 15,8 15,6 9 5 SW 1015,4 6 0,0
01.08.2020 01:00:00 15,9 15,7 11 6 WSW 1015,6 8 0,0
01.08.2020 00:00:00 15,7 15,5 15 8 WSW 1015,2 8 0,0
31.07.2020 23:00:00 15,9 15,6 16 9 W 1014,7 11 0,0
31.07.2020 22:00:00 16,0 15,6 13 7 WSW 1014,4 12 0,0
31.07.2020 21:00:00 16,4 15,7 15 8 WSW 1013,9 16 0,0
31.07.2020 20:00:00 17,4 17,0 11 6 WSW 1013,4 14 0,4
31.07.2020 19:00:00 17,4 17,2 15 8 WSW 1013,0 8 0,0
31.07.2020 18:00:00 17,5 17,0 16 9 SSW 1013,1 0,3 0,0
31.07.2020 17:00:00 17,9 17,2 13 7 SSW 1012,8 0,6 0,0
31.07.2020 16:00:00 18,8 16,6 18 10 SW 1012,2 8 0,0
31.07.2020 15:00:00 19,2 17,2 22 12 SW 1011,9 18 0,0
31.07.2020 14:00:00 19,6 16,5 16 9 SSW 1011,8 19 0,0
31.07.2020 13:00:00 18,3 16,4 15 8 SW 1011,2 15 0,0
31.07.2020 12:00:00 19,2 16,3 21 11 SSW 1010,7 17 0,0
31.07.2020 11:00:00 21,0 16,8 16 9 SSW 1010,1 20 0,0
31.07.2020 10:00:00 21,7 16,0 9 5 SSW 1009,2 22 0,0
31.07.2020 09:00:00 21,5 15,3 4 2 WNW 1009,5 24 0,0
31.07.2020 08:00:00 20,2 14,6 9 5 E 1009,2 25 0,0
31.07.2020 07:00:00 18,2 13,4 13 7 ESE 1008,9 25 0,0
31.07.2020 06:00:00 18,2 12,8 18 10 ESE 1009,0 26 0,0
31.07.2020 05:00:00 18,4 12,5 22 12 ESE 1008,7 27 0,0
31.07.2020 04:00:00 18,8 12,2 22 12 ESE 1009,3 28 0,0
31.07.2020 03:00:00 18,8 12,0 22 12 E 1010,1 29 0,0
31.07.2020 02:00:00 19,0 11,8 22 12 E 1010,9 29 0,0
31.07.2020 01:00:00 18,9 11,5 22 12 E 1011,7 29 0,0
31.07.2020 00:00:00 18,2 11,6 24 13 E 1012,6 28 0,0
30.07.2020 23:00:00 17,6 11,6 21 11 E 1013,3 28 0,0
30.07.2020 22:00:00 17,9 11,4 18 10 E 1013,1 28 0,0
30.07.2020 21:00:00 18,5 12,0 18 10 E 1013,1 29 0,0
30.07.2020 20:00:00 20,1 12,6 21 11 E 1013,2 30 0,0
30.07.2020 19:00:00 21,7 13,1 18 10 E 1013,7 29 0,0
30.07.2020 18:00:00 23,4 13,3 15 8 E 1014,2 30 0,0
30.07.2020 17:00:00 24,8 11,6 13 7 E 1014,9 30 0,0
30.07.2020 16:00:00 24,7 11,4 15 8 E 1015,3 30 0,0
30.07.2020 15:00:00 24,5 11,9 13 7 ESE 1016,0 30 0,0
30.07.2020 14:00:00 22,8 9,4 18 10 ESE 1016,5 30 0,0
30.07.2020 13:00:00 22,7 11,0 16 9 ESE 1016,9 30 0,0
30.07.2020 12:00:00 21,7 11,7 13 7 SE 1017,4 30 0,0
30.07.2020 11:00:00 21,1 12,1 15 8 ESE 1017,5 30 0,0
30.07.2020 10:00:00 19,2 12,8 13 7 ESE 1018,0 30 0,0
30.07.2020 09:00:00 17,4 13,2 11 6 E 1018,2 30 0,0
30.07.2020 08:00:00 15,0 13,9 9 5 E 1018,0 21 0,0
30.07.2020 07:00:00 12,1 11,9 9 5 ENE 1018,1 13 0,0
30.07.2020 06:00:00 11,7 11,4 8 4 E 1018,4 9 0,0
30.07.2020 05:00:00 11,7 11,3 8 4 E 1018,6 13 0,0
30.07.2020 04:00:00 11,9 11,4 9 5 E 1018,7 15 0,0
30.07.2020 03:00:00 12,3 11,8 8 4 ESE 1019,1 19 0,0
30.07.2020 02:00:00 12,7 11,9 5 3 E 1019,7 22 0,0
30.07.2020 01:00:00 13,0 12,0 4 2 S 1020,1 24 0,0
30.07.2020 00:00:00 13,3 12,2 5 3 SSE 1020,2 25 0,0
29.07.2020 23:00:00 13,4 12,2 5 3 SSW 1020,4 22 0,0
29.07.2020 22:00:00 14,3 12,2 5 3 SSW 1020,6 26 0,0
29.07.2020 21:00:00 15,5 12,4 8 4 WSW 1020,5 30 0,0
29.07.2020 20:00:00 16,2 12,7 9 5 WSW 1020,5 30 0,0
29.07.2020 19:00:00 16,7 12,5 13 7 SSW 1020,6 30 0,0
29.07.2020 18:00:00 17,9 12,4 16 9 SSW 1020,8 30 0,0
29.07.2020 17:00:00 18,5 12,5 16 9 SSW 1021,1 30 0,0
29.07.2020 16:00:00 18,5 11,9 18 10 SSW 1021,3 30 0,0
29.07.2020 15:00:00 19,6 12,6 16 9 SSW 1021,4 30 0,0

tt = temperature
td = dewpoint
ff = wind speed
dd = wind direction
ppp = reduced air pressure
vv = visibility
rr = precipitation

Next stations